Location: Kitchener
(43.4500°N, 80.5000°W)
Time: 17:46:56
(UTC-05:00)

OTV 5 (USA 277) - Visible Passes

Search period start: 15 February 2019 00:00
Search period end: 25 February 2019 00:00
Orbit: 342 x 346 km, 54.5° (Epoch: 09 February)

Date Brightness Start Highest point End Pass type
(mag) Time Alt. Az. Time Alt. Az. Time Alt. Az.
15 Feb ? 04:55:44 15° E 04:55:44 15° E 04:56:24 10° E visible
15 Feb ? 06:27:10 17° W 06:28:38 25° SW 06:31:03 10° S visible
16 Feb ? 05:19:01 26° SE 05:19:01 26° SE 05:20:25 10° SE visible
17 Feb ? 05:42:26 18° S 05:42:26 18° S 05:43:31 10° SSE visible
22 Feb ? 19:19:28 10° S 19:20:39 16° SSE 19:20:39 16° SSE visible
23 Feb ? 19:42:11 10° SW 19:44:16 41° SSW 19:44:16 41° SSW visible
24 Feb ? 18:31:58 10° S 18:34:00 18° SE 18:36:02 10° E visible
24 Feb ? 20:05:57 10° WSW 20:07:47 30° WNW 20:07:47 30° WNW visible
